Retour au catalogue

STARLINK-35517

ActifCommunicationsVLEO
NORAD 66244·PAYLOAD·🇺🇸 United States

Lancé Oct 29, 2025 depuis Cape Canaveral Space Force Station

Loading…

Prochains Passages (prochaines 24 heures)

TLE

FraisSource: CelesTrak SupGP

Époque: Sep 14, 2026, 21:47 UTC

1 66244C 25245L   26257.90812500 -.00057891  00000+0 -17104-2 0  2570
2 66244  53.1581 123.6018 0001343  89.1485   8.8483 15.34419843    18

Suivez STARLINK-35517 en temps réel avec AllMySat

Download on the App Store